Location: Indian Tree Observatory
(39.4030°N, 104.5929°W)
Time: 02:54:50
(UTC-06:00)

Hubble Space Telescope - Visible Passes

Search period start: 20 March 2019 00:00
Search period end: 30 March 2019 00:00
Orbit: 537 x 540 km, 28.5° (Epoch: 19 March)

Date Brightness Start Highest point End Pass type
(mag) Time Alt. Az. Time Alt. Az. Time Alt. Az.
24 Mar 3.0 20:37:42 10° S 20:38:49 12° S 20:38:49 12° S visible
25 Mar 2.8 20:26:33 10° SSW 20:28:33 13° SSE 20:29:10 13° SSE visible
26 Mar 2.8 20:15:37 10° SSW 20:17:57 15° S 20:19:27 12° SE visible
27 Mar 2.8 20:04:47 10° SSW 20:07:21 16° S 20:09:41 11° SE visible
28 Mar 2.7 19:54:03 10° SW 19:56:45 17° S 19:59:27 10° SE visible
28 Mar 3.4 21:34:42 10° SW 21:35:13 12° SW 21:35:13 12° SW visible
29 Mar 2.7 19:43:23 10° SW 19:46:09 17° S 19:48:56 10° SE visible
29 Mar 3.2 21:24:18 10° SW 21:25:23 13° SSW 21:25:23 13° SSW visible
